www.pogodaiklimat.ru

Погода и климат >> Архив погоды >> Индия >> Pendra Road


ПОГОДА в Pendra Road

  • Прогноз погоды в Pendra Road
  • Монитор погоды в Pendra Road
  • Климат города

АРХИВ ПОГОДЫ в Pendra Road

Время (UTC), дата Ветер
(напр.,м/с)
 
Видим.   Явления Облачность Т
(С)
Тd
(С)
f
(%)
Тe
(С)
Тes
(С)
Комфортность P
(гПа)
Po
(гПа)
Тmin
(С)
Tmax
(С)
R
(мм)
R24
(мм)
S
(см)
06 13.01 штиль 0 4000 м ясно +24.0 +2.6 25 +23 +38 комфорт 1015.8 946.6
09 13.01 С 1 4000 м ясно +26.0 +5.5 27 +25 +33 комфорт 1012.6 943.8
12 13.01 штиль 0 4000 м ясно +22.4 +7.8 39 +23 +23 комфорт 1012.9 943.4 +26.5
15 13.01 штиль 0 4000 м ясно +17.4 +8.5 56 +17 +17 1015.7 944.9
18 13.01 штиль 0 4000 м ясно +14.8 +7.5 62 +15 +15 1017.0 945.3
21 13.01 штиль 0 4000 м ясно +14.0 +5.6 57 +14 +14 1016.0 944.2
00 14.01 штиль 0 4000 м ясно +13.2 +5.5 60 +13 +13 1015.9 944.1
03 14.01 штиль 0 4000 м ясно +15.0 +5.9 54 +15 +19 1017.7 946.0 +11.9
06 14.01 С 1 4000 м ясно +24.6 +6.0 30 +24 +38 комфорт 1015.8 946.6
09 14.01 С 2 4000 м ясно +27.2 +7.6 29 +27 +34 жарко 1012.4 944.0
12 14.01 штиль 0 4000 м ясно +23.8 +8.9 39 +25 +25 комфорт 1013.2 943.9 +27.5
15 14.01 штиль 0 4000 м ясно +17.8 +9.0 56 +18 +18 1016.9 946.0
18 14.01 штиль 0 4000 м ясно +15.4 +7.4 59 +15 +15 1017.5 946.1
21 14.01 штиль 0 4000 м ясно +13.2 +6.9 66 +13 +13 1016.4 944.6
00 15.01 штиль 0 4000 м ясно +11.8 +5.2 64 +11 +11 1016.8 944.5
03 15.01 штиль 0 2000 м мгла ясно +13.8 +6.8 63 +14 +18 1018.8 946.8 +10.5
06 15.01 С 2 4000 м ясно +24.4 +4.5 28 +24 +36 комфорт 1015.8 946.6
09 15.01 С 2 4000 м ясно +26.8 +2.7 21 +25 +33 комфорт 1011.7 943.1
12 15.01 С 1 4000 м ясно +23.6 +6.6 33 +24 +24 комфорт 1011.9 942.7 +27.4
15 15.01 штиль 0 4000 м ясно +16.8 +6.8 52 +17 +17 1015.6 944.5
18 15.01 штиль 0 4000 м ясно +14.4 +5.6 55 +14 +14 1016.0 944.4
21 15.01 штиль 0 4000 м ясно +13.2 +5.1 58 +13 +13 1015.0 943.2
00 16.01 штиль 0 4000 м ясно +10.4 +5.9 74 +10 +10 1015.5 943.0
03 16.01 штиль 0 4000 м ясно +12.6 +6.7 67 +12 +17 1017.3 945.2 +9.0
06 16.01 штиль 0 4000 м ясно +22.8 +4.7 31 +23 +38 комфорт 1015.4 945.7
09 16.01 СЗ 1 4000 м ясно +25.4 +6.2 29 +25 +33 комфорт 1011.2 942.5
12 16.01 С 1 4000 м ясно +22.6 +5.5 33 +23 +23 комфорт 1011.1 941.7 +26.2
15 16.01 штиль 0 4000 м ясно +15.8 +3.9 45 +16 +16 1014.9 943.6
18 16.01 штиль 0 4000 м ясно +12.4 +4.0 57 +12 +12 1015.7 943.6
21 16.01 штиль 0 4000 м ясно +11.2 +4.0 61 +11 +11 1014.8 942.6
00 17.01 штиль 0 4000 м ясно +9.4 +2.8 63 +9 +9 1015.7 943.0
03 17.01 штиль 0 4000 м ясно +10.8 +4.0 63 +10 +15 1017.9 945.1 +7.0
06 17.01 штиль 0 4000 м ясно +24.4 +2.0 23 +23 +39 комфорт 1014.4 945.2
09 17.01 С 1 4000 м ясно +26.8 +5.2 25 +26 +34 жарко 1011.1 942.6
12 17.01 штиль 0 4000 м ясно +22.8 +6.4 35 +23 +23 комфорт 1012.0 942.6 +27.6
15 17.01 штиль 0 4000 м ясно +16.6 +4.5 45 +17 +17 1015.4 944.3
18 17.01 штиль 0 4000 м ясно +14.4 +1.9 43 +14 +14 1016.4 944.8
21 17.01 штиль 0 4000 м ясно +12.0 +1.9 50 +12 +12 1015.8 943.5
00 18.01 штиль 0 4000 м ясно +11.0 -0.7 44 +11 +11 1016.3 943.7
03 18.01 штиль 0 4000 м ясно +12.4 +0.1 43 +12 +17 1017.9 945.7 +8.5
06 18.01 С 1 4000 м ясно +24.2 +0.9 22 +23 +37 комфорт 1015.5 946.3
09 18.01 штиль 0 4000 м ясно +25.8 +3.4 23 +25 +34 комфорт 1012.5 943.7
12 18.01 штиль 0 4000 м ясно +23.0 +7.7 37 +24 +24 комфорт 1012.7 943.2 +26.6
15 18.01 штиль 0 4000 м ясно +16.0 +6.3 53 +16 +16 1016.2 944.9
18 18.01 штиль 0 4000 м ясно +14.0 +5.6 57 +14 +14 1017.3 945.3
00 19.01 штиль 0 4000 м ясно +10.2 +4.3 67 +10 +10 1017.1 944.3
03 19.01 штиль 0 4000 м мгла ясно +14.0 +4.6 53 +14 +18 1018.6 946.6 +8.5
06 19.01 штиль 0 4000 м ясно +24.6 +8.6 36 +25 +41 комфорт 1015.9 946.7
09 19.01 штиль 0 4000 м ясно +26.2 +4.1 24 +25 +35 комфорт 1012.8 944.2
12 19.01 штиль 0 4000 м ясно +23.6 +9.5 41 +25 +25 комфорт 1013.3 944.0
15 19.01 штиль 0 4000 м ясно +17.4 +9.0 58 +17 +17 1016.3 945.4
18 19.01 штиль 0 4000 м ясно +15.2 +8.0 62 +15 +15 1016.8 945.5
21 19.01 штиль 0 4000 м ясно +14.0 +7.4 64 +14 +14 1015.2 944.4
00 20.01 штиль 0 4000 м ясно +12.4 +7.3 71 +12 +12 1015.9 943.8

 

Местоположение метеостанции Pendra Road (Chhattisgarh, Индия): широта 22.77 долгота 81.90 высота над уровнем моря 625 м.

В архиве по умолчанию представлена погода в Pendra Road за последнюю неделю. Архивные данные за месяц целиком и за предыдущие месяцы, начиная с января 2011 года, Вы можете получить, выбрав интересующий диапазон дат из раскрывающегося списка и нажав кнопку "Ввод!".

Внимание! Время в таблицах - всемирное. Для получения местного времени необходимо прибавить поправку, которая в Pendra Road равна 5.5 ч.

Смотрите также архив погоды в соседних городах и на ближайших метеорологических станциях:

Погода в Raipur Airport (Chhattisgarh, Индия) (65 км)
Погода в Bilaspur (Chhattisgarh, Индия) (80 км)
Погода в Umaria (Madhya Pradesh, Индия) (134 км)
Погода в Ambikapur (Chhattisgarh, Индия) (145 км)
Погода в Malanjkhand (Madhya Pradesh, Индия) (150 км)
Погода в Mandla (Madhya Pradesh, Индия) (158 км)
Погода в Raipur (Chhattisgarh, Индия) (173 км)
Погода в Sidhi (Madhya Pradesh, Индия) (184 км)
Погода в Durg (Chhattisgarh, Индия) (188 км)
Погода в Rewa (Madhya Pradesh, Индия) (205 км)

Пояснения к столбцам:

Ветер - указаны скорость ветра в м/с - средняя за 10 мин, порывы в срок и между сроками (в фигурных скобках) и направление, откуда дует ветер: С - северный, СВ - северо-восточный, В - восточный, ЮВ - юго-восточный, Ю - южный, ЮЗ - юго-западный, З - западный, СЗ - северо-западный.
Видимость - горизонтальная дальность видимости в метрах или километрах. При видимости от 1 до 10 км при отсутствии осадков обычно наблюдается дымка, при ухудшении видимости до 1 км и менее - туман. В сухую погоду видимость может ухудшаться дымом, пылью или мглою.
Явления - указаны атмосферные явления, наблюдавшиеся в срок или в последний час перед сроком; фигурными скобками обозначены явления, наблюдавшиеся между сроками (за 1-3 часа до срока); квадратными скобками обозначены град или гололедные отложения с указанием их диаметра в мм.
Облачность - указаны через наклонную черту общая и нижняя облачность в баллах и высота нижней границы облаков в метрах; квадратными скобками обозначены формы облаков: Ci - перистые, Cs - перисто-слоистые, Cc - перисто-кучевые, Ac - высококучевые, As - высокослоистые, Sc - слоисто-кучевые, Ns - слоисто-дождевые, Cu - кучевые, Cb - кучево-дождевые. Подробнее классификацию облаков см. в Атласе облаков (PDF).
T - Температура воздуха - температура, измеренная на высоте 2 м над землей.
Td - Температура точки росы - температура, при понижении до которой содержащийся в воздухе водяной пар достигнет насыщения.
f - Относительная влажность воздуха - влажноcть воздуха, измеренная на высоте 2 м над землей.
Te - Эффективная температура - температура, которую ощущает одетый по сезону человек в тени. Характеристика душности погоды. При расчете учитывается влияние влажности воздуха и скорости ветра на теплоощущения человека.
Tes - Эффективная температура на солнце - температура, которую ощущает человек, с поправкой на солнечный нагрев. Характеристика знойности погоды. Зависит от высоты солнца над горизонтом, облачности и скорости ветра. Ночью, в пасмурную погоду, а также при ветре 12 м/с и более поправка равна нулю.
P - Атмосферное давление - приведенное к уровню моря атмосферное давление.
Po - Атмосферное давление - измеренное на уровне метеостанции атмосферное давление.
Tmin - Минимальная температура - минимум температуры воздуха на высоте 2 м над землей.
Tmax - Максимальная температура - максимум температуры воздуха на высоте 2 м над землей.
R - Количество осадков - Количество выпавших осадков за период времени, мм. При наведении курсора мыши на число - период времени, за который выпало указанное количество осадков.
R24 - Количество осадков - Количество выпавших осадков за 24 часа, мм.
S - Снежный покров - Высота снежного покрова, см. При наведении курсора мыши на число - состояние снежного покрова и степень покрытия местности в баллах.